Location: Arborea
(39.7744°N, 8.5819°E)
Time: 03:35:03
(UTC+00:00)

Cosmos 1408 - Pass Details

Date: 24 October 2021
Orbit: 465 x 490 km, 82.6° (Epoch: 15 November)

Event Time Altitude Azimuth Distance (km) Brightness Sun altitude
Rises 17:30:48 0° 9° (N) 2,527 6.0 -11.6°
Reaches altitude 10° 17:33:24 10° 29° (NNE) 1,639 4.9 -12.1°
Enters shadow 17:35:04 17° 55° (NE) 1,268 4.2 -12.5°
